Change the Weather History Date:

Thursday, March 20, 2014

  Actual Average Record
Temperature  
Mean Temperature 64 °F -  
Max Temperature 81 °F 80 °F 98 °F (1997)
Min Temperature 46 °F 52 °F 41 °F (2012)
Degree Days  
Heating Degree Days 2    
Growing Degree Days 14 (Base 50)    
Moisture  
Dew Point 6 °F    
Average Humidity 11    
Maximum Humidity 18    
Minimum Humidity 4    
Precipitation  
Precipitation 0.00 in - - ()
Sea Level Pressure  
Sea Level Pressure 29.94 in    
Wind  
Wind Speed 5 mph (NE)    
Max Wind Speed 8 mph    
Max Gust Speed -    
Visibility 10 miles    
Events      
Averages and records for this station are not official NWS values.
T = Trace of Precipitation, MM = Missing Value Source: NWS Daily Summary

Daily Weather History Graph

Daily Weather History Graph

Search for Another Location

Airport or City:

Trip Planner

Search our weather history database for the weather conditions in past years. The results will help you decide how hot, cold, wet, or windy it might be!

Date:

Astronomy

Mar. 20, 2014 Rise Set
Actual Time 6:42 AM PDT 6:50 PM PDT
Civil Twilight 6:17 AM PDT 7:15 PM PDT
Nautical Twilight 5:48 AM PDT 7:44 PM PDT
Astronomical Twilight 5:19 AM PDT 8:13 PM PDT
Moon 11:02 PM PDT (3/20) 9:03 AM PDT (3/20)
Length of Visible Light 12h 57m
Length of Day
12h 08m
Waning Gibbous, 83% of the Moon is Illuminated
Mar 20
Waning Gibbous
Mar 23
Last Quarter
Mar 30
New
Apr 7
First Quarter
Apr 15
Full

Hourly Weather History & Observations

Time (PDT) Temp. Windchill Dew Point Humidity Pressure Visibility Wind Dir Wind Speed Gust Speed Precip Events Conditions
12:52 AM 53.1 °F - -4.0 °F 10% 30.02 in 10.0 mi North 8.1 mph - N/A   Clear
1:52 AM 55.0 °F - -2.9 °F 9% 30.03 in 10.0 mi NW 4.6 mph - N/A   Clear
2:52 AM 52.0 °F - -2.9 °F 10% 30.01 in 10.0 mi NNW 3.5 mph - N/A   Clear
3:52 AM 50.0 °F - -2.0 °F 12% 29.99 in 10.0 mi NNW 5.8 mph - N/A   Clear
4:52 AM 48.0 °F - 3.0 °F 16% 29.99 in 10.0 mi North 4.6 mph - N/A   Clear
5:52 AM 46.0 °F 42.5 °F -2.9 °F 13% 30.01 in 10.0 mi WSW 6.9 mph - N/A   Clear
6:52 AM 51.1 °F - 1.9 °F 13% 30.00 in 10.0 mi SSW 6.9 mph - N/A   Clear
7:52 AM 50.0 °F - -2.0 °F 12% 30.02 in 10.0 mi Calm Calm - N/A   Clear
8:52 AM 59.0 °F - 1.0 °F 10% 30.01 in 10.0 mi NE 3.5 mph - N/A   Clear
9:52 AM 64.9 °F - 1.0 °F 8% 30.02 in 10.0 mi ENE 3.5 mph - N/A   Clear
10:52 AM 69.1 °F - 21.0 °F 16% 30.01 in 10.0 mi SE 4.6 mph - N/A   Clear
11:52 AM 73.0 °F - 5.0 °F 7% 29.99 in 10.0 mi Calm Calm - N/A   Clear
12:52 PM 77.0 °F - 3.9 °F 6% 29.96 in 10.0 mi Calm Calm - N/A   Clear
1:52 PM 81.0 °F - 1.0 °F 5% 29.92 in 10.0 mi Calm Calm - N/A   Clear
2:52 PM 80.1 °F - 9.0 °F 7% 29.90 in 10.0 mi East 3.5 mph - N/A   Clear
3:52 PM 80.1 °F - 7.0 °F 6% 29.88 in 10.0 mi SE 8.1 mph - N/A   Clear
4:52 PM 80.1 °F - -2.0 °F 4% 29.86 in 10.0 mi South 5.8 mph - N/A   Clear
5:52 PM 79.0 °F - 6.1 °F 6% 29.85 in 10.0 mi South 4.6 mph - N/A   Clear
6:52 PM 75.9 °F - 10.9 °F 8% 29.83 in 10.0 mi South 3.5 mph - N/A   Clear
7:52 PM 72.0 °F - 21.9 °F 15% 29.83 in 10.0 mi SSE 3.5 mph - N/A   Clear
8:52 PM 69.1 °F - 23.0 °F 18% 29.84 in 10.0 mi Calm Calm - N/A   Clear
9:52 PM 66.0 °F - 19.0 °F 17% 29.85 in 10.0 mi North 3.5 mph - N/A   Clear
10:52 PM 64.0 °F - 10.9 °F 13% 29.86 in 10.0 mi NNW 3.5 mph - N/A   Clear
11:52 PM 59.0 °F - 7.0 °F 13% 29.85 in 10.0 mi Calm Calm - N/A   Clear